GW6433 Weather Reports


time (UTC)temp
F
wind
direction
speed
knots
gust
knots
rain 1hr
in
rain 24hr
in
rain mn
in
humidity
%
barometer
mb
20260507022955 54 235 5.2 12.2 0.00 0.00 0.00 71
20260507022452 54 275 3.5 11.3 0.00 0.00 0.00 71
20260507021948 55 251 4.3 17.4 0.00 0.00 0.00 70
20260507021443 55 254 1.7 14.8 0.00 0.00 0.00 70
20260507020941 55 262 0.0 10.4 0.00 0.00 0.00 69
20260507020438 56 185 4.3 7.8 0.00 0.00 0.00 68
20260507015935 56 265 2.6 9.6 0.00 0.00 0.00 67
20260507015433 56 140 1.7 12.2 0.00 0.00 0.00 66
20260507014929 57 331 7.8 10.4 0.00 0.00 0.00 64
20260507014426 58 210 4.3 9.6 0.00 0.00 0.00 63
20260507013922 58 182 1.7 13.0 0.00 0.00 0.00 63
20260507013420 59 274 2.6 10.4 0.00 0.00 0.00 61
20260507012917 60 200 2.6 10.4 0.00 0.00 0.00 59
20260507012413 60 195 2.6 7.0 0.00 0.00 0.00 58
20260507011910 60 179 1.7 8.7 0.00 0.00 0.00 58
20260507011408 61 115 2.6 8.7 0.00 0.00 0.00 56
20260507010907 62 7 2.6 7.8 0.00 0.00 0.00 55
20260507010403 62 102 1.7 12.2 0.00 0.00 0.00 55
20260507005900 62 285 3.5 11.3 0.00 0.00 0.00 54
20260507005357 63 299 1.7 10.4 0.00 0.00 0.00 54
20260507004854 64 108 2.6 10.4 0.00 0.00 0.00 52
20260507004350 63 215 1.7 12.2 0.00 0.00 0.00 52
20260507003850 64 221 0.0 9.6 0.00 0.00 0.00 51
20260507003343 64 343 4.3 10.4 0.00 0.00 0.00 50
20260507002838 64 286 6.1 8.7 0.00 0.00 0.00 49
20260507002334 64 12 1.7 7.0 0.00 0.00 0.00 49
20260507001832 65 56 3.5 8.7 0.00 0.00 0.00 47
20260507001329 66 351 3.5 10.4 0.00 0.00 0.00 46
20260507000825 67 321 2.6 9.6 0.00 0.00 0.00 45
20260507000321 68 181 1.7 6.1 0.00 0.00 0.00 44
20260506235818 68 264 3.5 8.7 0.00 0.00 0.00 44
20260506235314 69 248 1.7 5.2 0.00 0.00 0.00 43
20260506234810 68 291 2.6 10.4 0.00 0.00 0.00 44
20260506234308 67 136 2.6 11.3 0.00 0.00 0.00 45
20260506233806 68 79 7.8 13.9 0.00 0.00 0.00 43
20260506233302 69 303 3.5 10.4 0.00 0.00 0.00 42
20260506232759 69 210 3.5 7.0 0.00 0.00 0.00 41
20260506232254 69 320 0.9 10.4 0.00 0.00 0.00 42
20260506231751 68 305 6.1 12.2 0.00 0.00 0.00 42
20260506231249 69 306 6.1 8.7 0.00 0.00 0.00 42
20260506230745 68 246 2.6 8.7 0.00 0.00 0.00 41
20260506230243 68 242 4.3 10.4 0.00 0.00 0.00 42
20260506225739 68 359 1.7 7.8 0.00 0.00 0.00 42
20260506225236 70 13 1.7 8.7 0.00 0.00 0.00 41
20260506224732 70 330 2.6 7.0 0.00 0.00 0.00 39
20260506224230 70 279 4.3 9.6 0.00 0.00 0.00 41
20260506223726 70 109 0.9 7.8 0.00 0.00 0.00 40
20260506223222 70 258 1.7 13.0 0.00 0.00 0.00 41
20260506222719 71 355 2.6 4.3 0.00 0.00 0.00 41
20260506222214 71 189 2.6 6.1 0.00 0.00 0.00 40
20260506221713 70 127 2.6 6.1 0.00 0.00 0.00 42
20260506221211 70 302 3.5 7.0 0.00 0.00 0.00 42
20260506220708 69 222 2.6 8.7 0.00 0.00 0.00 42
20260506220202 70 327 2.6 6.1 0.00 0.00 0.00 43
20260506215659 70 220 2.6 6.1 0.00 0.00 0.00 43
20260506215154 70 294 2.6 9.6 0.00 0.00 0.00 43
20260506214651 72 277 1.7 7.0 0.00 0.00 0.00 43
20260506214149 72 235 1.7 4.3 0.00 0.00 0.00 43
20260506213647 71 184 4.3 9.6 0.00 0.00 0.00 43
20260506213144 72 271 1.7 5.2 0.00 0.00 0.00 43
20260506212641 71 215 2.6 5.2 0.00 0.00 0.00 44
20260506212136 70 263 1.7 7.8 0.00 0.00 0.00 45
20260506211632 70 312 3.5 8.7 0.00 0.00 0.00 45
20260506211129 70 20 4.3 6.1 0.00 0.00 0.00 46
20260506210626 70 107 3.5 7.0 0.00 0.00 0.00 46
20260506210122 70 224 0.0 6.1 0.00 0.00 0.00 47
20260506205619 69 302 1.7 7.0 0.00 0.00 0.00 47
20260506205114 69 268 3.5 15.6 0.00 0.00 0.00 48
20260506204612 69 271 1.7 9.6 0.00 0.00 0.00 49
20260506204109 69 273 4.3 11.3 0.00 0.00 0.00 49
20260506203607 69 275 0.0 13.9 0.00 0.00 0.00 50
20260506203103 69 228 2.6 7.8 0.00 0.00 0.00 49
20260506202601 69 252 2.6 12.2 0.00 0.00 0.00 49
20260506202057 69 194 3.5 8.7 0.00 0.00 0.00 49
20260506201555 69 329 2.6 9.6 0.00 0.00 0.00 48
20260506201051 69 251 3.5 13.0 0.00 0.00 0.00 48
20260506200547 68 241 7.0 13.0 0.00 0.00 0.00 47
20260506200044 69 266 4.3 9.6 0.00 0.00 0.00 46
20260506195541 69 242 2.6 13.0 0.00 0.00 0.00 48
20260506195037 70 288 2.6 7.8 0.00 0.00 0.00 48
20260506194535 70 182 2.6 9.6 0.00 0.00 0.00 47
20260506194031 70 226 4.3 11.3 0.00 0.00 0.00 48
20260506193529 69 239 7.8 15.6 0.00 0.00 0.00 49
20260506193026 70 243 2.6 9.6 0.00 0.00 0.00 49
20260506192523 71 23 3.5 13.9 0.00 0.00 0.00 47
20260506192019 71 330 2.6 7.0 0.00 0.00 0.00 47
20260506191516 70 271 1.7 8.7 0.00 0.00 0.00 47
20260506191012 70 346 1.7 7.0 0.00 0.00 0.00 47
20260506190509 70 332 0.9 8.7 0.00 0.00 0.00 47
20260506190006 70 167 2.6 6.1 0.00 0.00 0.00 47
20260506185503 70 40 0.0 6.1 0.00 0.00 0.00 47
20260506184959 70 85 0.9 7.0 0.00 0.00 0.00 46
20260506184457 69 25 4.3 7.8 0.00 0.00 0.00 48
20260506183954 70 162 1.7 6.1 0.00 0.00 0.00 47
20260506183449 70 52 2.6 9.6 0.00 0.00 0.00 47
20260506182946 69 38 2.6 11.3 0.00 0.00 0.00 47
20260506182444 69 308 2.6 7.0 0.00 0.00 0.00 48
20260506181941 69 313 5.2 7.0 0.00 0.00 0.00 48
20260506181439 68 216 3.5 8.7 0.00 0.00 0.00 50
20260506180935 68 206 1.7 11.3 0.00 0.00 0.00 50
20260506180432 67 218 2.6 9.6 0.00 0.00 0.00 51
20260506175929 68 178 4.3 7.0 0.00 0.00 0.00 51
20260506175425 67 283 3.5 11.3 0.00 0.00 0.00 52
20260506174922 67 263 2.6 11.3 0.00 0.00 0.00 52
20260506174420 66 293 2.6 12.2 0.00 0.00 0.00 52
20260506173917 67 236 1.7 8.7 0.00 0.00 0.00 52
20260506173414 68 173 4.3 8.7 0.00 0.00 0.00 51
20260506172911 66 181 1.7 6.1 0.00 0.00 0.00 52
20260506172407 66 225 2.6 8.7 0.00 0.00 0.00 53
20260506171905 65 213 2.6 11.3 0.00 0.00 0.00 54
20260506171402 65 222 2.6 7.8 0.00 0.00 0.00 54
20260506170900 65 214 2.6 9.6 0.00 0.00 0.00 53
20260506170356 65 139 1.7 5.2 0.00 0.00 0.00 54
20260506165855 64 280 1.7 9.6 0.00 0.00 0.00 55
20260506165352 65 251 2.6 4.3 0.00 0.00 0.00 55
20260506164848 64 211 4.3 7.8 0.00 0.00 0.00 55
20260506164345 64 151 1.7 8.7 0.00 0.00 0.00 56
20260506163843 63 287 2.6 9.6 0.00 0.00 0.00 56
20260506163337 63 259 2.6 7.0 0.00 0.00 0.00 56
20260506162833 63 182 3.5 9.6 0.00 0.00 0.00 57
20260506162331 63 319 2.6 9.6 0.00 0.00 0.00 58
20260506161828 63 175 1.7 6.1 0.00 0.00 0.00 58
20260506161325 62 297 2.6 7.8 0.00 0.00 0.00 59
20260506160824 62 182 4.3 6.1 0.00 0.00 0.00 58
20260506160320 62 215 1.7 20.9 0.00 0.00 0.00 58
20260506155819 62 339 1.7 13.0 0.00 0.00 0.00 59
20260506155315 61 170 1.7 9.6 0.00 0.00 0.00 60
20260506153427 60 214 3.5 13.0 0.00 0.00 0.00 61
20260506152924 60 282 0.9 9.6 0.00 0.00 0.00 63
20260506152421 60 34 1.7 7.8 0.00 0.00 0.00 62
20260506151920 59 193 6.1 10.4 0.00 0.00 0.00 63
20260506151416 59 203 0.9 7.8 0.00 0.00 0.00 65
20260506150914 59 171 6.1 7.0 0.00 0.00 0.00 66
20260506150410 58 288 2.6 8.7 0.00 0.00 0.00 65
20260506145907 58 262 1.7 8.7 0.00 0.00 0.00 67
20260506145403 58 231 3.5 5.2 0.00 0.00 0.00 67
20260506144901 57 277 2.6 8.7 0.00 0.00 0.00 68
20260506144357 56 146 1.7 11.3 0.00 0.00 0.00 68
20260506143855 56 189 1.7 7.8 0.00 0.00 0.00 69
20260506143352 56 217 1.7 6.1 0.00 0.00 0.00 71
20260506142851 55 268 2.6 7.0 0.00 0.00 0.00 71
20260506142348 55 169 4.3 8.7 0.00 0.00 0.00 72
20260506141846 55 196 5.2 9.6 0.00 0.00 0.00 73
20260506141344 54 239 2.6 8.7 0.00 0.00 0.00 74
20260506140842 54 291 2.6 6.1 0.00 0.00 0.00 75
20260506140338 54 283 2.6 7.0 0.00 0.00 0.00 76
20260506135835 54 218 2.6 8.7 0.00 0.00 0.00 77
20260506135332 53 262 0.9 7.0 0.00 0.00 0.00 79
20260506134828 53 200 5.2 11.3 0.00 0.00 0.00 78
20260506134325 53 199 2.6 9.6 0.00 0.00 0.00 79
20260506133822 53 202 4.3 12.2 0.00 0.00 0.00 80
20260506133319 53 246 1.7 9.6 0.00 0.00 0.00 80
20260506132815 53 235 5.2 8.7 0.00 0.00 0.00 80
20260506132313 53 255 1.7 5.2 0.00 0.00 0.00 80
20260506131811 53 206 4.3 10.4 0.00 0.00 0.00 80
20260506131306 53 21 2.6 7.0 0.00 0.00 0.00 79
20260506130804 52 225 6.1 12.2 0.00 0.00 0.00 81
20260506130300 52 185 3.5 6.1 0.00 0.00 0.00 81
20260506125758 52 200 1.7 7.0 0.00 0.00 0.00 81
20260506125256 53 264 1.7 9.6 0.00 0.00 0.00 79
20260506124754 53 229 3.5 7.0 0.00 0.00 0.00 78
20260506124251 54 233 2.6 10.4 0.00 0.00 0.00 76
20260506123749 54 163 1.7 8.7 0.00 0.00 0.00 77
20260506123247 54 281 3.5 8.7 0.00 0.00 0.00 76
20260506122743 54 259 1.7 11.3 0.00 0.00 0.00 77
20260506122241 53 332 0.9 7.0 0.00 0.00 0.00 78
20260506121739 53 189 2.6 7.0 0.00 0.00 0.00 79
20260506121236 53 211 1.7 6.1 0.00 0.00 0.00 80
20260506120733 53 180 2.6 7.8 0.00 0.00 0.00 80
20260506120231 53 198 1.7 6.1 0.00 0.00 0.00 81
20260506115728 53 180 2.6 7.0 0.00 0.00 0.00 80
20260506115226 52 257 1.7 7.0 0.00 0.00 0.00 81
20260506114724 53 200 2.6 7.0 0.00 0.00 0.00 81
20260506114221 52 174 0.9 7.0 0.00 0.00 0.00 80
20260506113720 52 1 1.7 5.2 0.00 0.00 0.00 81
20260506113217 53 273 0.9 7.0 0.00 0.00 0.00 80
20260506112713 52 186 1.7 10.4 0.00 0.00 0.00 81
20260506112211 52 208 3.5 7.0 0.00 0.00 0.00 81
20260506111708 53 189 3.5 7.0 0.00 0.00 0.00 81
20260506111206 53 232 1.7 6.1 0.00 0.00 0.00 80
20260506110702 53 267 2.6 6.1 0.00 0.00 0.00 80
20260506110200 53 161 2.6 6.1 0.00 0.00 0.00 79
20260506105656 53 339 1.7 4.3 0.00 0.00 0.00 78
20260506105153 54 185 3.5 6.1 0.00 0.00 0.00 77
20260506104652 54 212 2.6 13.0 0.00 0.00 0.00 75
20260506104149 55 184 2.6 10.4 0.00 0.00 0.00 74
20260506103646 55 229 1.7 6.1 0.00 0.00 0.00 72
20260506103143 55 248 3.5 7.0 0.00 0.00 0.00 70
20260506102641 55 108 2.6 4.3 0.00 0.00 0.00 71
20260506102138 56 193 2.6 4.3 0.00 0.00 0.00 70
20260506101635 55 78 4.3 6.1 0.00 0.00 0.00 71
20260506101131 55 131 2.6 12.2 0.00 0.00 0.00 71
20260506100630 55 192 4.3 7.0 0.00 0.00 0.00 71
20260506100127 56 238 1.7 7.0 0.00 0.00 0.00 71
20260506095626 56 227 2.6 6.1 0.00 0.00 0.00 71
20260506095122 55 154 6.1 9.6 0.00 0.00 0.00 70
20260506094620 55 181 1.7 6.1 0.00 0.00 0.00 71
20260506094117 55 225 2.6 7.0 0.00 0.00 0.00 71
20260506093616 55 261 3.5 8.7 0.00 0.00 0.00 73
20260506093113 54 221 1.7 13.0 0.00 0.00 0.00 74
20260506092610 55 227 0.0 6.1 0.00 0.00 0.00 74
20260506092107 54 181 4.3 7.8 0.00 0.00 0.00 74
20260506091606 54 234 1.7 6.1 0.00 0.00 0.00 75
20260506091103 55 215 1.7 7.8 0.00 0.00 0.00 74
20260506090600 55 308 1.7 5.2 0.00 0.00 0.00 73
20260506090056 55 178 2.6 7.0 0.00 0.00 0.00 73
20260506085553 55 180 5.2 7.8 0.00 0.00 0.00 71
20260506085050 56 284 1.7 6.1 0.00 0.00 0.00 71
20260506084547 56 205 2.6 7.8 0.00 0.00 0.00 69
20260506084043 57 257 2.6 7.0 0.00 0.00 0.00 68
20260506083540 57 174 2.6 13.9 0.00 0.00 0.00 66
20260506083037 57 189 2.6 6.1 0.00 0.00 0.00 67
20260506082534 57 200 3.5 7.0 0.00 0.00 0.00 67
20260506082030 57 240 0.0 4.3 0.00 0.00 0.00 69
20260506081528 58 217 3.5 6.1 0.00 0.00 0.00 66
20260506081025 57 243 1.7 6.1 0.00 0.00 0.00 66
20260506080523 57 241 1.7 9.6 0.00 0.00 0.00 66
20260506073506 59 218 0.0 8.7 0.00 0.00 0.00 59
20260506073003 59 250 2.6 7.0 0.00 0.00 0.00 58
20260506072500 59 139 1.7 7.8 0.00 0.00 0.00 58
20260506071958 59 322 0.0 12.2 0.00 0.00 0.00 59
20260506071456 60 245 1.7 7.8 0.00 0.00 0.00 59
20260506070953 59 159 3.5 7.8 0.00 0.00 0.00 60
20260506070450 59 73 1.7 5.2 0.00 0.00 0.00 61
20260506062427 59 40 2.6 7.8 0.00 0.00 0.00 67
20260506061923 59 255 1.7 11.3 0.00 0.00 0.00 67
20260506061420 59 155 2.6 6.1 0.00 0.00 0.00 66
20260506060918 59 220 1.7 7.8 0.00 0.00 0.00 67
20260506060416 59 139 4.3 5.2 0.00 0.00 0.00 68
20260506051348 60 216 2.6 12.2 0.00 0.00 0.00 67
20260506050845 60 223 5.2 9.6 0.00 0.00 0.00 68
20260506050342 60 241 0.0 7.0 0.00 0.00 0.00 67
20260506044833 60 288 5.2 11.3 0.00 0.00 0.00 65
20260506044331 61 251 0.0 8.7 0.00 0.00 0.00 64
20260506043827 61 340 4.3 9.6 0.00 0.00 0.00 64
20260506043325 61 208 4.3 8.7 0.00 0.00 0.00 65
20260506042823 61 202 3.5 9.6 0.00 0.00 0.00 65
20260506042322 61 234 2.6 12.2 0.00 0.00 0.00 64
20260506041820 62 267 2.6 6.1 0.00 0.00 0.00 63
20260506041317 62 246 0.9 7.8 0.00 0.00 0.00 63
20260506040814 62 221 3.5 10.4 0.00 0.00 0.00 64
20260506040311 62 247 4.3 10.4 0.00 0.00 0.00 64
20260506035807 63 248 2.6 5.2 0.00 0.00 0.00 64
20260506035306 63 255 2.6 9.6 0.00 0.00 0.00 63
20260506034802 63 53 2.6 6.1 0.00 0.00 0.00 62
20260506034259 64 342 0.9 7.8 0.00 0.00 0.00 62
20260506033756 64 208 2.6 13.0 0.00 0.00 0.00 62
20260506033253 64 291 3.5 5.2 0.00 0.00 0.00 62
20260506032750 64 284 2.6 4.3 0.00 0.00 0.00 61
20260506032247 65 210 1.7 7.0 0.00 0.00 0.00 61
20260506031743 65 259 2.6 14.8 0.00 0.00 0.00 60
20260506031241 65 262 2.6 6.1 0.00 0.00 0.00 59
20260506030739 66 168 0.9 7.0 0.00 0.00 0.00 59
20260506030236 66 234 3.5 8.7 0.00 0.00 0.00 58
20260506025733 66 249 3.5 8.7 0.00 0.00 0.00 57
20260506025229 67 211 1.7 11.3 0.00 0.00 0.00 56
20260506024726 67 279 3.5 8.7 0.00 0.00 0.00 55
20260506024223 68 200 1.7 6.1 0.00 0.00 0.00 55
20260506023719 68 252 1.7 13.0 0.00 0.00 0.00 54